Retour au catalogue

STARLINK-30113

ActifCommunicationsVLEO
NORAD 56291·PAYLOAD·🇺🇸 United States

Lancé Apr 19, 2023 depuis Cape Canaveral Space Force Station

Loading…

Prochains Passages (prochaines 24 heures)

TLE

FraisSource: CelesTrak SupGP

Époque: Sep 14, 2026, 20:52 UTC

1 56291C 23056F   26257.86993056  .00038076  00000+0  13794-2 0  2573
2 56291  43.0009 220.4534 0001267 253.1660 101.6813 15.27554171    19

Suivez STARLINK-30113 en temps réel avec AllMySat

Download on the App Store